PIA10 OMDB-OBBI

Flight info

Callsign PIA10
Flight time N/A
Altitude 26000
Route NABIX3F NABIX P699 ORMID Y856 ALKAN/N0333F180 Y856 SOLOB/N0324F160 Y856 ORDIG ORDIG1
Aircraft A20N/M-SDE2E3FGHIRWXY/LB1

Departure

Time 2026-04-24 16:22
Airport Dubai International Airport (OMDB)

Arrival

Time N/A
Airport Bahrain International Airport (OBBI)
Time Latitude Longitude Altitude Speed Heading
2026-04-24 14:44 25.25276 55.35568 23 ft 0 kts 211°
2026-04-24 15:31 25.25276 55.35569 21 ft 0 kts 211°
2026-04-24 15:48 25.25277 55.35569 21 ft 0 kts 211°
2026-04-24 15:57 25.25285 55.35574 21 ft 2 kts 209°
2026-04-24 15:57 25.25295 55.35581 21 ft 2 kts 211°
2026-04-24 15:57 25.25313 55.35592 21 ft 2 kts 209°
2026-04-24 15:58 25.25328 55.35601 22 ft 2 kts 207°
2026-04-24 15:58 25.25343 55.35609 22 ft 2 kts 203°
2026-04-24 15:58 25.25358 55.35615 24 ft 2 kts 192°
2026-04-24 15:58 25.25374 55.35616 22 ft 2 kts 150°
2026-04-24 15:59 25.25383 55.35608 23 ft 1 kts 123°
2026-04-24 15:59 25.25384 55.35606 23 ft 0 kts 122°
2026-04-24 16:04 25.25384 55.35604 22 ft 0 kts 138°
2026-04-24 16:04 25.25386 55.35600 23 ft 0 kts 180°
2026-04-24 16:04 25.25390 55.35598 24 ft 0 kts 222°
2026-04-24 16:05 25.25395 55.35609 22 ft 0 kts 265°
2026-04-24 16:05 25.25394 55.35601 22 ft 1 kts 265°
2026-04-24 16:06 25.25394 55.35600 21 ft 3 kts 293°
2026-04-24 16:06 25.25380 55.35620 23 ft 3 kts 314°
2026-04-24 16:06 25.25374 55.35628 25 ft 0 kts 297°
2026-04-24 16:08 25.25374 55.35629 25 ft 0 kts 297°
2026-04-24 16:09 25.25376 55.35624 22 ft 4 kts 297°
2026-04-24 16:09 25.25411 55.35555 21 ft 11 kts 303°
2026-04-24 16:09 25.25445 55.35511 21 ft 10 kts 317°
2026-04-24 16:09 25.25500 55.35400 21 ft 15 kts 302°
2026-04-24 16:10 25.25618 55.35195 23 ft 11 kts 302°
2026-04-24 16:11 25.25703 55.35072 21 ft 6 kts 338°
2026-04-24 16:11 25.25739 55.35085 21 ft 5 kts 36°
2026-04-24 16:11 25.25749 55.35129 21 ft 7 kts 104°
2026-04-24 16:12 25.25753 55.35224 21 ft 5 kts 70°
2026-04-24 16:12 25.25758 55.35227 21 ft 1 kts 34°
2026-04-24 16:12 25.25787 55.35249 21 ft 6 kts 34°
2026-04-24 16:13 25.25804 55.35260 21 ft 1 kts 22°
2026-04-24 16:13 25.25866 55.35278 21 ft 11 kts 29°
2026-04-24 16:14 25.25986 55.35379 21 ft 10 kts 60°
2026-04-24 16:14 25.26009 55.35462 21 ft 13 kts 84°
2026-04-24 16:14 25.25918 55.35682 22 ft 19 kts 122°
2026-04-24 16:15 25.25894 55.35726 21 ft 20 kts 122°
2026-04-24 16:15 25.25661 55.36140 24 ft 27 kts 122°
2026-04-24 16:16 25.25450 55.36524 24 ft 31 kts 122°
2026-04-24 16:16 25.25328 55.36732 22 ft 33 kts 122°
2026-04-24 16:17 25.24990 55.37333 25 ft 36 kts 122°
2026-04-24 16:17 25.24830 55.37616 24 ft 10 kts 121°
2026-04-24 16:18 25.24754 55.37752 23 ft 1 kts 121°
2026-04-24 16:18 25.24728 55.37800 24 ft 1 kts 121°
2026-04-24 16:18 25.24718 55.37817 22 ft 3 kts 121°
2026-04-24 16:19 25.24670 55.37903 23 ft 8 kts 112°
2026-04-24 16:19 25.24677 55.37959 22 ft 8 kts 47°
2026-04-24 16:20 25.24700 55.37978 23 ft 0 kts 26°
2026-04-24 16:20 25.24797 55.38014 28 ft 14 kts 345°
2026-04-24 16:20 25.24845 55.37959 27 ft 0 kts 296°
2026-04-24 16:21 25.24858 55.37931 27 ft 8 kts 299°
2026-04-24 16:21 25.24932 55.37789 26 ft 46 kts 301°
2026-04-24 16:21 25.25274 55.37187 27 ft 135 kts 301°
2026-04-24 16:22 25.25860 55.36113 374 ft 175 kts 301°
2026-04-24 16:22 25.27218 55.33614 2126 ft 201 kts 301°
2026-04-24 16:22 25.27914 55.32205 3038 ft 219 kts 298°
2026-04-24 16:23 25.28699 55.30637 3342 ft 239 kts 297°
2026-04-24 16:23 25.29059 55.28858 3481 ft 242 kts 265°
2026-04-24 16:23 25.28584 55.27072 3774 ft 245 kts 247°
2026-04-24 16:24 25.27171 55.23742 3964 ft 241 kts 244°
2026-04-24 16:24 25.26434 55.22074 4018 ft 242 kts 245°
2026-04-24 16:24 25.25706 55.20404 4020 ft 241 kts 245°
2026-04-24 16:24 25.24986 55.18728 4023 ft 241 kts 245°
2026-04-24 16:25 25.24292 55.17040 4023 ft 241 kts 250°
2026-04-24 16:25 25.23872 55.15256 4034 ft 240 kts 263°
2026-04-24 16:25 25.23637 55.13363 4038 ft 266 kts 262°
2026-04-24 16:26 25.23080 55.09197 5768 ft 270 kts 261°
2026-04-24 16:26 25.22802 55.07153 6834 ft 269 kts 260°
2026-04-24 16:26 25.22236 55.03031 8778 ft 274 kts 260°
2026-04-24 16:27 25.21949 55.00948 9793 ft 275 kts 260°
2026-04-24 16:27 25.21656 54.98824 10477 ft 289 kts 260°
2026-04-24 16:27 25.21339 54.96539 10805 ft 313 kts 260°
2026-04-24 16:27 25.21041 54.94072 11189 ft 333 kts 264°
2026-04-24 16:28 25.20868 54.91502 11977 ft 338 kts 264°
2026-04-24 16:28 25.20685 54.88899 12806 ft 342 kts 264°
2026-04-24 16:28 25.20301 54.83579 14384 ft 351 kts 264°
2026-04-24 16:29 25.20105 54.80886 15194 ft 353 kts 265°
2026-04-24 16:29 25.19908 54.78176 15965 ft 356 kts 265°
2026-04-24 16:29 25.20003 54.72668 17520 ft 361 kts 273°
2026-04-24 16:30 25.20335 54.67096 18839 ft 368 kts 273°
2026-04-24 16:30 25.20499 54.64260 19411 ft 372 kts 273°
2026-04-24 16:30 25.20663 54.61394 19987 ft 376 kts 273°
2026-04-24 16:31 25.20830 54.58492 20563 ft 381 kts 273°
2026-04-24 16:31 25.20997 54.55561 21136 ft 385 kts 273°
2026-04-24 16:31 25.21317 54.52609 21697 ft 390 kts 279°
2026-04-24 16:31 25.21954 54.49722 22261 ft 395 kts 285°
2026-04-24 16:32 25.22705 54.46798 22857 ft 398 kts 284°
2026-04-24 16:32 25.23455 54.43837 23406 ft 402 kts 284°
2026-04-24 16:32 25.24208 54.40847 23905 ft 405 kts 284°
2026-04-24 16:32 25.24963 54.37842 24453 ft 407 kts 284°
2026-04-24 16:33 25.25720 54.34827 24976 ft 409 kts 284°
2026-04-24 16:33 25.26481 54.31792 25483 ft 412 kts 284°
2026-04-24 16:33 25.27245 54.28737 25648 ft 413 kts 284°
2026-04-24 16:33 25.28004 54.25675 25776 ft 413 kts 284°
2026-04-24 16:34 25.28761 54.22617 25867 ft 413 kts 284°
2026-04-24 16:34 25.29516 54.19560 25908 ft 413 kts 284°
2026-04-24 16:34 25.30273 54.16496 25908 ft 413 kts 284°
2026-04-24 16:34 25.31029 54.13436 25906 ft 413 kts 284°
2026-04-24 16:35 25.31742 54.10366 25906 ft 412 kts 282°
2026-04-24 16:35 25.32389 54.07283 25906 ft 412 kts 282°
2026-04-24 16:35 25.33022 54.04190 25906 ft 412 kts 281°
2026-04-24 16:35 25.33659 54.01099 25908 ft 412 kts 282°
2026-04-24 16:36 25.34302 53.98011 25909 ft 412 kts 282°
2026-04-24 16:36 25.34949 53.94929 25909 ft 412 kts 282°
2026-04-24 16:36 25.35597 53.91850 25909 ft 412 kts 282°
2026-04-24 16:36 25.36247 53.88765 25917 ft 411 kts 281°
2026-04-24 16:37 25.36895 53.85692 25909 ft 410 kts 281°
2026-04-24 16:37 25.37541 53.82623 25909 ft 410 kts 281°
2026-04-24 16:37 25.38187 53.79550 25909 ft 410 kts 281°
2026-04-24 16:37 25.38833 53.76480 25906 ft 410 kts 281°
2026-04-24 16:38 25.39478 53.73405 25907 ft 410 kts 281°
2026-04-24 16:38 25.40121 53.70342 25908 ft 409 kts 281°
2026-04-24 16:38 25.40763 53.67278 25908 ft 409 kts 281°
2026-04-24 16:38 25.41404 53.64217 25908 ft 409 kts 281°
2026-04-24 16:39 25.42045 53.61146 25908 ft 409 kts 281°
2026-04-24 16:39 25.42677 53.58121 25908 ft 409 kts 281°
2026-04-24 16:39 25.43324 53.55016 25908 ft 409 kts 281°
2026-04-24 16:39 25.43963 53.51950 25911 ft 409 kts 281°
2026-04-24 16:40 25.44601 53.48882 25911 ft 409 kts 281°
2026-04-24 16:40 25.45238 53.45815 25911 ft 409 kts 281°
2026-04-24 16:40 25.45874 53.42750 25911 ft 409 kts 281°
2026-04-24 16:40 25.46510 53.39682 25908 ft 409 kts 281°
2026-04-24 16:41 25.47145 53.36620 25910 ft 408 kts 281°
2026-04-24 16:41 25.47779 53.33557 25912 ft 408 kts 281°
2026-04-24 16:41 25.48411 53.30493 25912 ft 408 kts 281°
2026-04-24 16:41 25.49035 53.27471 25908 ft 408 kts 281°
2026-04-24 16:42 25.49666 53.24409 25912 ft 408 kts 281°
2026-04-24 16:42 25.50294 53.21358 25912 ft 407 kts 281°
2026-04-24 16:42 25.50920 53.18304 25912 ft 407 kts 281°
2026-04-24 16:42 25.51547 53.15246 25911 ft 407 kts 281°
2026-04-24 16:43 25.52182 53.12147 25911 ft 407 kts 281°
2026-04-24 16:43 25.52807 53.09091 25912 ft 407 kts 281°
2026-04-24 16:43 25.53423 53.06077 25911 ft 407 kts 281°
2026-04-24 16:43 25.54047 53.03018 25912 ft 407 kts 281°
2026-04-24 16:44 25.54670 52.99959 25910 ft 407 kts 281°
2026-04-24 16:44 25.55293 52.96900 25912 ft 408 kts 281°
2026-04-24 16:44 25.55957 52.93846 25915 ft 408 kts 284°
2026-04-24 16:44 25.56897 52.90876 25913 ft 410 kts 290°
2026-04-24 16:45 25.58141 52.88028 25916 ft 412 kts 296°
2026-04-24 16:45 25.59631 52.85308 25912 ft 413 kts 299°
2026-04-24 16:45 25.61141 52.82600 25911 ft 413 kts 298°
2026-04-24 16:45 25.62643 52.79889 25913 ft 413 kts 298°
2026-04-24 16:46 25.64144 52.77175 25914 ft 413 kts 298°
2026-04-24 16:46 25.65640 52.74468 25913 ft 411 kts 298°
2026-04-24 16:46 25.67136 52.71762 25914 ft 411 kts 298°
2026-04-24 16:46 25.68630 52.69058 25913 ft 412 kts 298°
2026-04-24 16:47 25.70125 52.66352 25917 ft 412 kts 298°
2026-04-24 16:47 25.71620 52.63643 25917 ft 412 kts 298°
2026-04-24 16:47 25.73115 52.60934 25917 ft 412 kts 298°
2026-04-24 16:47 25.74609 52.58225 25913 ft 412 kts 298°
2026-04-24 16:48 25.76103 52.55515 25914 ft 412 kts 298°
2026-04-24 16:48 25.77595 52.52806 25914 ft 412 kts 298°
2026-04-24 16:48 25.79086 52.50098 25914 ft 411 kts 298°
2026-04-24 16:48 25.80574 52.47393 25917 ft 411 kts 298°
2026-04-24 16:49 25.82060 52.44690 25916 ft 411 kts 298°
2026-04-24 16:49 25.83549 52.41982 25917 ft 411 kts 298°
2026-04-24 16:49 25.85035 52.39275 25916 ft 411 kts 298°
2026-04-24 16:49 25.86523 52.36565 25916 ft 411 kts 298°
2026-04-24 16:50 25.87508 52.34770 25917 ft 411 kts 298°
2026-04-24 16:50 25.89495 52.31146 25927 ft 411 kts 298°
2026-04-24 16:50 25.90975 52.28445 25916 ft 409 kts 298°
2026-04-24 16:50 25.92455 52.25742 25920 ft 410 kts 298°
2026-04-24 16:51 25.93937 52.23035 25919 ft 410 kts 298°
2026-04-24 16:51 25.95418 52.20327 25920 ft 410 kts 298°
2026-04-24 16:51 25.96879 52.17654 25918 ft 410 kts 298°
2026-04-24 16:51 25.98358 52.14946 25919 ft 410 kts 298°
2026-04-24 16:52 25.99837 52.12237 25920 ft 410 kts 298°
2026-04-24 16:52 26.01336 52.09490 25919 ft 410 kts 298°
2026-04-24 16:52 26.02795 52.06815 25790 ft 410 kts 298°
2026-04-24 16:52 26.04271 52.04107 25563 ft 409 kts 298°
2026-04-24 16:53 26.05739 52.01413 25333 ft 406 kts 298°
2026-04-24 16:53 26.07198 51.98734 25100 ft 404 kts 298°
2026-04-24 16:53 26.08651 51.96063 24878 ft 403 kts 298°
2026-04-24 16:53 26.10098 51.93400 24648 ft 402 kts 298°
2026-04-24 16:54 26.11544 51.90740 24421 ft 401 kts 298°
2026-04-24 16:54 26.12981 51.88093 24200 ft 400 kts 298°
2026-04-24 16:54 26.14419 51.85443 23973 ft 399 kts 298°
2026-04-24 16:54 26.15849 51.82808 23758 ft 398 kts 298°
2026-04-24 16:55 26.17276 51.80176 23545 ft 396 kts 298°
2026-04-24 16:55 26.18697 51.77555 23289 ft 395 kts 298°
2026-04-24 16:55 26.20112 51.74943 23022 ft 393 kts 298°
2026-04-24 16:55 26.21518 51.72344 22773 ft 391 kts 298°
2026-04-24 16:56 26.22920 51.69751 22521 ft 390 kts 298°
2026-04-24 16:56 26.24314 51.67173 22265 ft 388 kts 298°
2026-04-24 16:56 26.25704 51.64598 22008 ft 387 kts 298°
2026-04-24 16:56 26.27086 51.62040 21764 ft 385 kts 298°
2026-04-24 16:57 26.28462 51.59489 21517 ft 383 kts 298°
2026-04-24 16:57 26.29832 51.56950 21169 ft 383 kts 298°
2026-04-24 16:57 26.31204 51.54405 20595 ft 383 kts 298°
2026-04-24 16:57 26.32570 51.51869 20015 ft 380 kts 298°
2026-04-24 16:58 26.33922 51.49357 19451 ft 376 kts 298°
2026-04-24 16:58 26.35263 51.46868 18879 ft 372 kts 298°
2026-04-24 16:58 26.36589 51.44403 18316 ft 369 kts 298°
2026-04-24 16:58 26.37902 51.41962 17727 ft 365 kts 298°
2026-04-24 16:59 26.39178 51.39589 17223 ft 359 kts 298°
2026-04-24 16:59 26.40470 51.37186 16688 ft 354 kts 297°
2026-04-24 16:59 26.42967 51.32535 15654 ft 346 kts 297°
2026-04-24 17:00 26.44180 51.30274 15161 ft 342 kts 296°
2026-04-24 17:00 26.45616 51.25416 14180 ft 325 kts 269°
2026-04-24 17:00 26.45432 51.22938 13701 ft 318 kts 257°
2026-04-24 17:01 26.44585 51.18045 12800 ft 329 kts 257°
2026-04-24 17:01 26.44157 51.15523 12299 ft 331 kts 257°
2026-04-24 17:02 26.43453 51.11354 11457 ft 326 kts 258°
2026-04-24 17:02 26.42897 51.08062 10803 ft 320 kts 258°
2026-04-24 17:02 26.42485 51.05631 10376 ft 315 kts 258°
2026-04-24 17:02 26.42088 51.03287 10243 ft 300 kts 258°
2026-04-24 17:03 26.41347 50.98921 9926 ft 276 kts 258°
2026-04-24 17:03 26.40991 50.96836 9657 ft 269 kts 258°
2026-04-24 17:03 26.40645 50.94809 9413 ft 265 kts 258°
2026-04-24 17:04 26.40300 50.92797 9071 ft 263 kts 258°
2026-04-24 17:04 26.39620 50.88829 8379 ft 257 kts 258°
2026-04-24 17:04 26.39286 50.86884 8041 ft 254 kts 258°
2026-04-24 17:05 26.39067 50.85608 7815 ft 252 kts 258°
2026-04-24 17:05 26.38740 50.83700 7477 ft 249 kts 258°
2026-04-24 17:05 26.38118 50.80067 7268 ft 226 kts 258°
2026-04-24 17:06 26.37728 50.78416 7114 ft 217 kts 243°
2026-04-24 17:06 26.35315 50.76576 6871 ft 230 kts 189°
2026-04-24 17:06 26.33720 50.76886 6646 ft 242 kts 159°
2026-04-24 17:07 26.32421 50.78112 6362 ft 252 kts 130°
2026-04-24 17:07 26.31451 50.79751 6048 ft 254 kts 125°
2026-04-24 17:07 26.29646 50.83101 5422 ft 249 kts 125°
2026-04-24 17:08 26.27826 50.86341 4810 ft 245 kts 126°
2026-04-24 17:08 26.26909 50.87930 4493 ft 243 kts 126°
2026-04-24 17:08 26.25992 50.89493 4212 ft 238 kts 130°
2026-04-24 17:09 26.23269 50.90784 3661 ft 216 kts 195°
2026-04-24 17:09 26.21268 50.88571 2894 ft 209 kts 264°
2026-04-24 17:10 26.21448 50.87020 2686 ft 201 kts 291°
2026-04-24 17:10 26.23344 50.83009 2212 ft 213 kts 298°
2026-04-24 17:11 26.23630 50.77643 1995 ft 234 kts 260°
2026-04-24 17:12 26.23270 50.69905 1524 ft 179 kts 308°